Flag for French Polynesia Weather past 2 weeks in Gambier Islands, French Polynesia

Now
71 °F

Mild.


Feels Like: 66 °F
Forecast: 74 / 76 °F
Wind: 3 mph from Northeast

Location: Rikitea

Current Time: Sep 21, 2014 at 3:52:44 AM

Latest Report: Sep 21, 2014 at 2:00 AM


Visibility: N/A

Pressure: 30.06 "Hg

Humidity: 93%

Dew point: 69 °F

Location of Gambier IslandsLocation

Historic Weather in Gambier Islands — Graph

°F

Gambier Islands temperature yesterday

Maximum temperature yesterday: 77 °F (at 12:00 PM)
Minimum temperature yesterday: 71 °F (at 12:00 AM)
Average temperature yesterday: 73 °F

Past Weeks' High & Low Weather Summary

 TemperatureHumidityPressure
High79 °F (Sep 15, 11:00 AM)97% (Sep 16, 7:00 AM)30.32 "Hg (Sep 16, 7:00 AM)
Low64 °F (Sep 17, 6:00 AM)58% (Sep 7, 3:00 PM)29.90 "Hg (Sep 15, 2:00 AM)
Average71 °F81%30.10 "Hg
* Reported Sep 6 2:00 AM — Sep 21 2:00 AM, Gambier Islands, Weather by CustomWeather, © 2014

Note: Actual official high and low records may vary slightly from our data, if they occured in-between our weather recording intervals... More about our weather records

Advertising

Gambier Islands weather history for previous 24 hours

 ConditionsComfort  
Time TempWeatherWind HumidityBarometerVisibility
2:00 AM
Sep 21
71 °FMild.3 mph93%30.06 "HgN/A
1:00 AM71 °FMild.3 mph91%30.08 "HgN/A
12:00 AM72 °FMild.5 mph92%30.11 "HgN/A
11:00 PM
Sep 20
71 °FMild.3 mph91%30.11 "HgN/A
10:00 PM72 °FMild.3 mph90%30.12 "HgN/A
9:00 PM72 °FMild.3 mph89%30.11 "HgN/A
8:00 PM71 °FMild.2 mph89%30.11 "HgN/A
7:00 PM72 °FMild.7 mph88%30.08 "HgN/A
6:00 PM72 °FMild.6 mph87%30.05 "HgN/A
5:00 PM73 °FOvercast.6 mph85%30.03 "Hg12 mi
4:00 PM74 °FOvercast.6 mph82%30.03 "Hg12 mi
3:00 PM75 °FOvercast.5 mph82%30.01 "Hg12 mi
2:00 PM75 °FOvercast.5 mph80%30.03 "Hg12 mi
1:00 PM75 °FOvercast.6 mph81%30.05 "Hg12 mi
12:00 PM77 °FOvercast.6 mph76%30.08 "Hg19 mi
11:00 AM76 °FPartly sunny.7 mph75%30.09 "Hg19 mi
10:00 AM76 °FOvercast.7 mph78%30.11 "Hg19 mi
9:00 AM75 °FScattered clouds.8 mph79%30.12 "Hg19 mi
8:00 AM73 °FOvercast.7 mph82%30.11 "Hg12 mi
4:00 AM71 °FMild.6 mph89%30.05 "HgN/A
3:00 AM71 °FMild.6 mph90%30.06 "HgN/A
Weather by CustomWeather, © 2014

See weather overviewHow to use our weather pages